Location: Altmatt
(47.1333°N, 8.7000°E)
Time: 08:12:49
(UTC+00:00)

Cosmos 2181 Rocket - Pass Details

Date: 13 July 2020
Orbit: 951 x 1015 km, 82.9° (Epoch: 05 August)

Event Time Altitude Azimuth Distance (km) Brightness Sun altitude
Rises 19:45:45 0° 353° (N) 3,714 7.8 -4.6°
Reaches altitude 10° 19:48:20 10° 356° (N) 2,752 7.1 -4.9°
Maximum altitude 19:54:36 66° 79° (ENE) 1,057 4.1 -5.7°
Drops below altitude 10° 20:00:43 10° 161° (SSE) 2,691 5.8 -6.5°
Enters shadow 20:02:30 - 163° (SSE) 3,354 6.3 -6.7°
